User: anonymous   Login
Location: Unspecified
(0.0000°N, 0.0000°E)
Time: 18:53:25
(UTC+00:00)
Language:

PERSEUS M1 - Orbit

View from above orbital plane
View from above orbital plane
View from above satellite
View from above satellite

Ground track
Ground track

The orbit data is extracted from the following two-line orbital elements,

1 40039U 14033AF  19077.63267635 +.00000074 +00000-0 +14768-4 0  9990
2 40039 097.8934 351.5493 0014581 013.1627 346.9966 14.86054323256728
Epoch (UTC): 18 March 2019 15:11:03
Eccentricity: 0.0014581
inclination: 97.8934°
perigee height: 600 km
apogee height: 620 km
right ascension of ascending node: 351.5493°
argument of perigee: 13.1627°
revolutions per day: 14.86054323
mean anomaly at epoch: 346.9966°
orbit number at epoch: 25672

The dashed part of the orbit path shows where the satellite is in the earth's shadow,  

DLR